#timestamp,LO_Frequency,Hit 
1505959215.8,286047001.8,N
1505959235.6,286047001.0,N
1505959255.4,286046999.7,N
1505959275.3,286047001.8,N
1505959295.1,286047003.6,N
1505959315.8,286047001.9,N
1505959335.7,286046999.9,N
1505959355.5,286047002.4,N
1505959375.3,286047001.3,N
1505959395.2,286047005.8,N
1505959415.9,286047002.6,N
1505959435.7,286046998.7,N
1505959455.6,286046998.7,N
1505959475.4,286047001.0,N
1505959495.2,286046999.8,N
1505959515.0,286047001.4,N
1505959515.9,286047001.4,N
1505959535.8,286047000.9,N
1505959555.6,286046999.3,N
1505959575.4,286047001.1,N
1505959595.3,286047002.6,N
1505959615.1,286047002.7,N
1505959616.0,286047002.7,N
1505959635.8,286046998.2,N
1505959655.7,286047000.4,N
1505959675.5,286047000.6,N
1505959695.3,286047003.1,N
1505959715.2,286047007.3,P
1505959735.9,286047003.1,N
1505959755.7,286047002.3,N
1505959775.6,286047003.7,N
1505959795.4,286047004.1,N
1505959815.2,286047003.6,N
1505959835.1,286046999.8,N
1505959836.0,286046999.8,N
1505959855.8,286047001.0,N
1505959875.6,286046998.2,N
1505959895.4,286047000.1,N
1505959915.3,286047002.5,N
1505959935.1,286047002.0,N
1505959955.8,286047002.2,N
1505959975.7,286047001.3,N
1505959995.5,286047001.7,N
1505960015.3,286047003.9,N
1505960035.2,286047003.9,N
1505960055.9,286047004.0,N
1505960075.7,286047000.2,N
1505960095.6,286047002.4,N
1505960115.4,286047001.7,N
1505960135.2,286047004.3,N
1505960155.0,286047004.1,N
1505960155.9,286047004.1,N
1505960175.8,286046998.1,N
1505960195.6,286047000.7,N
1505960215.4,286047004.4,N
1505960235.3,286047001.8,N
1505960255.1,286047002.2,N
1505960275.8,286047004.2,N
1505960295.7,286047001.4,N
1505960315.5,286047005.6,P
1505960335.3,286047004.8,N
1505960355.2,286047007.3,P
1505960375.9,286047004.5,N
1505960395.7,286047005.4,P
1505960415.6,286046999.6,N
1505960435.4,286046996.6,N
1505960455.2,286046997.9,N
1505960475.1,286046996.1,N
1505960476.0,286046996.1,N
1505960495.8,286046997.7,N
1505960515.6,286046997.7,N
1505960535.5,286046995.6,N
1505960555.3,286046997.4,N
1505960575.1,286046997.2,N
1505960595.9,286046996.4,N
1505960615.7,286046994.9,N
1505960635.5,286046998.9,N
1505960655.3,286047001.2,N
1505960675.2,286047000.0,N
1505960695.0,286046998.2,N
1505960695.9,286046998.2,N
1505960715.7,286046999.3,N
1505960735.6,286046999.2,N
1505960755.4,286046996.5,N
1505960775.2,286046999.9,N
1505960795.1,286047002.8,N
1505960796.0,286047002.8,N
1505960815.8,286047001.1,N
1505960835.6,286047000.4,N
1505960855.5,286047001.0,N
1505960875.3,286047001.0,N
1505960895.1,286047001.2,N
1505960915.9,286046996.9,N
1505960935.7,286046998.6,N
1505960955.5,286047002.3,N
1505960975.3,286047003.6,N
1505960995.2,286047005.4,N
1505961015.0,286047005.9,N
1505961015.9,286047005.9,N
1505961035.7,286047003.6,N
1505961055.6,286047005.0,N
1505961075.4,286047006.9,N
1505961095.2,286047006.2,N
1505961115.1,286047012.4,P
1505961116.0,286047012.4,N
1505961135.8,286047014.0,N
1505961155.6,286047013.5,N
1505961175.5,286047013.6,N
1505961195.3,286047009.5,N
1505961215.1,286047008.9,N
1505961235.9,286047010.7,N
1505961255.7,286047012.9,P
1505961275.5,286047006.4,P
1505961295.4,286047008.3,P
1505961315.2,286047013.9,P
1505961335.0,286047004.1,N
1505961336.0,286047004.1,N
1505961355.8,286047003.8,N
1505961375.6,286047002.3,N
1505961395.4,286046999.6,N
1505961415.3,286046996.2,N
1505961435.1,286046994.7,N
1505961455.8,286046995.5,N
1505961475.7,286046996.7,N
1505961495.5,286047000.4,N
1505961515.3,286047002.7,N
1505961535.2,286047000.7,N
1505961555.9,286046996.7,N
1505961575.7,286046996.3,N
1505961595.6,286046993.8,N
1505961615.4,286046995.9,N
1505961635.2,286046993.8,N
1505961655.0,286046990.7,N
1505961655.9,286046990.7,N
1505961675.8,286046988.6,N
1505961695.6,286046988.9,N
1505961715.4,286046988.5,N
1505961735.3,286046993.2,N
1505961755.1,286046994.8,N
1505961775.8,286046997.2,N
1505961795.7,286046994.5,N
1505961815.5,286046990.3,N
1505961835.3,286046987.8,N
1505961855.2,286046985.4,N
1505961875.9,286046984.5,N
1505961895.7,286046980.7,P
1505961915.6,286046988.3,N
1505961935.4,286046987.8,N
1505961955.2,286046989.2,N
1505961975.1,286046987.1,N
1505961976.0,286046987.1,P
1505961995.8,286047000.3,N
1505962015.6,286046999.4,N
1505962035.5,286047002.3,N
1505962055.3,286047005.5,N
1505962075.1,286047006.0,N
1505962095.9,286047003.8,N
1505962115.7,286047001.5,N
1505962135.5,286047001.4,N
1505962155.4,286047005.8,N
1505962175.2,286047004.2,N
1505962195.0,286047001.5,N
1505962195.9,286047001.5,N
1505962215.8,286047003.8,N
1505962235.6,286047001.4,N
1505962255.4,286047001.9,N
1505962275.2,286047000.6,N
1505962295.1,286046998.8,N
1505962296.0,286046998.8,N
1505962315.8,286046996.8,N
1505962335.6,286046998.8,N
1505962355.5,286047000.8,N
1505962375.3,286046998.4,N
1505962395.1,286046995.4,N
1505962415.9,286046995.3,N
1505962435.7,286046997.7,N
1505962455.5,286046996.8,N
1505962475.4,286046999.6,N
1505962495.2,286047000.9,N
1505962515.0,286047000.0,N
1505962515.9,286047000.0,N
1505962535.8,286047001.7,N
1505962555.6,286047002.0,N
1505962575.4,286047002.5,N
1505962595.2,286047001.4,N
1505962615.1,286047003.4,N
1505962616.0,286047003.4,N
1505962635.8,286047006.7,N
1505962655.6,286047006.0,N
1505962675.5,286047004.1,N
1505962695.3,286047003.2,N
1505962715.1,286047001.9,N
1505962735.9,286047000.4,N
1505962755.7,286047000.9,N
1505962775.5,286047000.4,N
1505962795.4,286046998.4,N
